Temp
-23 -23 -23 -24 -24 -24 -24 -24 -24 -24 -25 -24 -24 -25 -25 -25 -25 -24 -24 -25 -26 -26 -26 -26 -26 -27 -27 -27 -27 -27 -28 -28 -28 -28 -29 -29 -28 -29 -29 -29 -29 -29 -28 -28 -28 -28 -27 -27 -27 -27 -27 -27 -26 -24
-24 -24 -24 -24 -24 -24 -24 -24 -24 -24 -25 -25 -25 -25 -25 -25 -25 -25 -25 -26 -27 -27 -26 -27 -27 -27 -28 -28 -28 -28 -28 -28 -28 -29 -29 -29 -29 -29 -29 -29 -29 -29 -28 -28 -28 -28 -28 -27 -27 -27 -27 -27 -26 -25
-25 -25 -25 -25 -25 -25 -25 -25 -25 -25 -25 -26 -26 -25 -25 -25 -26 -26 -26 -26 -27 -27 -27 -27 -27 -28 -28 -28 -28 -28 -29 -29 -29 -29 -29 -28 -29 -29 -29 -29 -29 -29 -28 -28 -28 -28 -28 -27 -27 -27 -27 -27 -27 -26
-26 -26 -26 -26 -26 -26 -26 -26 -26 -26 -26 -26 -26 -27 -26 -26 -26 -26 -26 -27 -27 -27 -27 -27 -27 -28 -28 -28 -29 -29 -29 -29 -29 -29 -29 -28 -29 -30 -29 -29 -29 -29 -28 -28 -28 -28 -28 -27 -27 -27 -27 -27 -27 -26
-27 -27 -27 -27 -27 -27 -27 -27 -27 -27 -27 -26 -27 -28 -27 -27 -26 -27 -27 -27 -27 -27 -27 -28 -28 -28 -28 -28 -29 -29 -29 -29 -29 -29 -29 -28 -30 -30 -29 -29 -28 -29 -28 -28 -28 -28 -28 -27 -27 -27 -27 -27 -27 -27
-28 -28 -28 -28 -28 -28 -28 -28 -28 -27 -27 -27 -27 -29 -28 -27 -27 -27 -27 -27 -27 -27 -28 -28 -28 -28 -28 -29 -29 -29 -29 -29 -30 -29 -29 -29 -30 -30 -30 -29 -29 -28 -28 -28 -28 -28 -28 -27 -27 -27 -27 -27 -27 -27
-29 -29 -29 -29 -29 -29 -28 -28 -28 -28 -28 -28 -28 -28 -28 -28 -27 -28 -27 -27 -27 -27 -28 -29 -29 -28 -28 -29 -29 -29 -29 -30 -30 -29 -29 -30 -30 -30 -29 -29 -29 -28 -28 -28 -28 -28 -28 -27 -27 -27 -27 -27 -27 -27
-30 -30 -30 -29 -29 -29 -29 -29 -29 -29 -28 -28 -28 -28 -28 -28 -28 -28 -28 -28 -28 -28 -28 -29 -29 -29 -28 -29 -29 -30 -30 -30 -30 -29 -29 -30 -30 -30 -29 -29 -29 -29 -28 -28 -28 -28 -28 -28 -27 -27 -27 -26 -27 -27
-30 -30 -30 -30 -30 -30 -30 -30 -30 -29 -29 -29 -29 -29 -29 -28 -28 -28 -29 -28 -28 -29 -29 -29 -29 -29 -29 -29 -29 -30 -30 -30 -30 -30 -29 -30 -30 -30 -29 -30 -29 -29 -29 -29 -28 -28 -28 -28 -27 -27 -27 -27 -27 -27
-31 -31 -31 -31 -31 -31 -31 -30 -30 -30 -30 -31 -31 -30 -29 -28 -29 -29 -30 -29 -29 -29 -29 -29 -29 -29 -29 -30 -30 -30 -30 -30 -30 -30 -30 -31 -30 -30 -30 -30 -29 -29 -29 -29 -28 -28 -28 -27 -27 -27 -27 -27 -27 -27
-32 -32 -32 -32 -31 -31 -31 -31 -31 -31 -31 -32 -32 -31 -30 -30 -31 -31 -30 -30 -29 -29 -29 -29 -29 -30 -30 -30 -30 -30 -30 -30 -30 -30 -31 -31 -30 -30 -30 -30 -30 -30 -29 -29 -29 -28 -28 -28 -28 -28 -27 -27 -27 -27
-33 -33 -32 -32 -32 -32 -32 -32 -31 -32 -31 -31 -32 -32 -32 -31 -32 -31 -31 -30 -30 -29 -29 -29 -30 -30 -30 -30 -30 -30 -30 -31 -31 -31 -31 -31 -30 -30 -30 -30 -30 -30 -30 -29 -29 -29 -28 -28 -28 -28 -27 -27 -27 -27
-33 -33 -33 -32 -32 -31 -31 -31 -31 -31 -31 -31 -32 -32 -32 -32 -32 -31 -31 -30 -30 -30 -30 -30 -30 -30 -30 -29 -30 -31 -32 -31 -31 -31 -31 -31 -31 -31 -31 -30 -30 -30 -29 -29 -28 -28 -28 -28 -27 -27 -27 -27 -28 -27
-33 -33 -32 -32 -31 -31 -31 -31 -31 -31 -32 -32 -31 -32 -32 -31 -31 -31 -31 -31 -30 -30 -31 -30 -30 -30 -30 -31 -32 -32 -32 -31 -31 -31 -31 -31 -31 -31 -31 -30 -30 -29 -29 -29 -28 -28 -28 -27 -27 -27 -27 -28 -28 -28
-33 -33 -32 -32 -32 -31 -31 -31 -31 -31 -31 -31 -31 -31 -31 -31 -31 -31 -31 -31 -31 -31 -30 -30 -31 -31 -32 -32 -32 -32 -32 -31 -31 -31 -31 -31 -31 -31 -31 -30 -30 -29 -29 -29 -28 -28 -27 -27 -27 -27 -27 -27 -27 -27
-33 -32 -32 -32 -32 -32 -32 -31 -31 -31 -31 -31 -31 -31 -31 -31 -31 -31 -31 -31 -31 -31 -31 -31 -30 -31 -32 -32 -32 -32 -31 -31 -31 -31 -31 -31 -31 -31 -30 -30 -29 -29 -29 -28 -28 -28 -27 -27 -26 -27 -27 -27 -27 -27
-33 -32 -32 -32 -32 -32 -32 -31 -31 -31 -31 -31 -31 -31 -31 -31 -32 -32 -31 -31 -31 -31 -31 -31 -32 -32 -32 -32 -32 -32 -31 -32 -32 -31 -31 -31 -31 -31 -30 -30 -29 -29 -29 -28 -28 -27 -27 -26 -26 -26 -26 -26 -26 -26
-33 -32 -33 -33 -32 -32 -32 -32 -32 -32 -32 -32 -31 -31 -31 -32 -32 -32 -32 -32 -31 -31 -32 -32 -32 -32 -32 -32 -32 -32 -31 -31 -31 -31 -31 -31 -31 -30 -30 -29 -29 -29 -29 -28 -28 -27 -26 -26 -26 -25 -26 -25 -25 -25
-33 -33 -33 -33 -33 -33 -33 -33 -33 -33 -32 -32 -32 -32 -32 -32 -32 -32 -32 -32 -32 -32 -33 -33 -32 -32 -32 -32 -31 -31 -31 -31 -31 -31 -30 -30 -30 -30 -30 -29 -29 -29 -29 -28 -28 -27 -27 -26 -25 -25 -25 -24 -25 -25
-33 -33 -34 -33 -33 -33 -33 -33 -33 -33 -33 -32 -32 -32 -32 -32 -33 -32 -32 -32 -33 -33 -33 -32 -32 -31 -31 -31 -31 -31 -31 -31 -31 -31 -30 -30 -30 -29 -29 -29 -29 -28 -28 -28 -28 -27 -27 -26 -25 -26 -25 -25 -24 -24
-34 -34 -34 -34 -34 -33 -33 -33 -33 -33 -33 -33 -33 -33 -33 -33 -33 -33 -33 -33 -33 -33 -33 -32 -32 -31 -31 -31 -31 -31 -31 -31 -31 -31 -31 -30 -30 -29 -29 -29 -29 -28 -28 -28 -28 -27 -27 -27 -26 -26 -25 -25 -25 -24
-33 -34 -34 -34 -34 -34 -34 -34 -34 -34 -33 -33 -33 -33 -33 -33 -33 -33 -33 -33 -33 -33 -33 -32 -31 -31 -31 -31 -31 -31 -31 -31 -31 -31 -30 -30 -30 -30 -29 -29 -29 -28 -28 -28 -28 -27 -27 -26 -26 -26 -25 -25 -25 -24
-33 -33 -34 -34 -34 -34 -34 -34 -34 -34 -34 -34 -34 -33 -34 -33 -33 -33 -33 -33 -33 -33 -32 -32 -31 -31 -31 -31 -31 -31 -31 -31 -31 -31 -31 -30 -30 -30 -29 -29 -29 -28 -28 -27 -27 -27 -27 -26 -26 -25 -25 -25 -24 -25
-33 -34 -34 -34 -35 -35 -35 -35 -34 -34 -34 -34 -34 -33 -34 -34 -34 -34 -34 -33 -33 -33 -32 -32 -31 -31 -31 -31 -31 -31 -31 -31 -31 -31 -31 -30 -30 -29 -29 -29 -29 -28 -28 -27 -27 -26 -26 -26 -26 -25 -25 -24 -25 -24
-33 -34 -34 -35 -35 -35 -35 -35 -34 -34 -34 -34 -34 -34 -34 -34 -34 -34 -33 -33 -33 -33 -32 -32 -31 -31 -31 -31 -31 -31 -31 -31 -31 -31 -31 -30 -30 -29 -29 -29 -28 -28 -27 -27 -26 -26 -26 -26 -26 -25 -25 -24 -24 -24
-34 -35 -35 -35 -35 -35 -34 -34 -34 -34 -34 -34 -34 -34 -34 -34 -34 -33 -33 -33 -33 -33 -32 -32 -31 -31 -31 -31 -31 -31 -31 -31 -31 -30 -30 -30 -30 -29 -28 -28 -28 -28 -28 -27 -27 -26 -26 -26 -26 -25 -25 -24 -24 -23
-35 -35 -35 -35 -34 -34 -34 -34 -34 -34 -34 -34 -34 -34 -34 -34 -33 -33 -33 -33 -33 -33 -33 -32 -31 -31 -31 -31 -31 -31 -31 -31 -30 -30 -30 -29 -29 -29 -29 -29 -28 -28 -27 -27 -27 -27 -26 -26 -25 -25 -25 -24 -24 -23
-35 -35 -35 -34 -34 -34 -34 -34 -34 -34 -34 -34 -34 -34 -33 -33 -33 -33 -33 -33 -33 -33 -33 -32 -31 -31 -31 -31 -31 -31 -31 -30 -30 -30 -29 -29 -29 -29 -29 -29 -29 -28 -28 -27 -27 -27 -26 -26 -25 -25 -25 -24 -23 -23
-34 -34 -34 -34 -34 -34 -34 -34 -34 -34 -34 -33 -33 -33 -33 -33 -33 -33 -33 -32 -33 -33 -33 -31 -31 -31 -31 -31 -31 -31 -30 -30 -30 -29 -29 -29 -29 -29 -28 -28 -29 -29 -28 -28 -27 -27 -26 -25 -25 -25 -24 -24 -24 -23
-34 -34 -34 -34 -33 -33 -33 -33 -33 -33 -33 -33 -33 -33 -33 -33 -33 -33 -33 -32 -32 -33 -32 -31 -31 -31 -31 -31 -30 -30 -30 -29 -29 -29 -29 -29 -29 -28 -28 -28 -28 -28 -28 -28 -27 -27 -26 -25 -25 -24 -24 -24 -24 -22
-33 -33 -33 -33 -33 -33 -33 -33 -33 -33 -33 -33 -33 -33 -33 -33 -33 -33 -32 -33 -32 -32 -31 -31 -31 -31 -31 -30 -30 -29 -29 -29 -29 -29 -29 -28 -28 -28 -29 -28 -28 -28 -28 -27 -27 -27 -26 -25 -24 -24 -24 -24 -24 -23
-33 -33 -32 -32 -32 -32 -33 -33 -33 -33 -33 -33 -33 -33 -33 -33 -33 -33 -33 -32 -31 -31 -31 -31 -31 -31 -30 -30 -29 -29 -29 -29 -29 -29 -29 -29 -29 -28 -29 -29 -28 -27 -27 -27 -27 -26 -26 -25 -24 -24 -24 -24 -24 -23
-32 -32 -32 -32 -32 -32 -32 -32 -33 -33 -33 -33 -33 -33 -33 -32 -32 -32 -31 -31 -31 -31 -31 -31 -31 -30 -30 -29 -29 -29 -29 -29 -29 -29 -29 -29 -29 -28 -28 -28 -28 -28 -27 -27 -26 -26 -25 -25 -24 -24 -24 -23 -24 -24
Height
5501 5501 5500 5500 5500 5502 5504 5505 5508 5512 5513 5514 5514 5515 5516 5518 5520 5524 5524 5523 5522 5521 5524 5524 5525 5525 5527 5530 5532 5533 5531 5530 5526 5522 5520 5517 5515 5513 5512 5512 5512 5511 5511 5509 5508 5507 5509 5510 5513 5518 5521 5521 5525 5530
5480 5480 5481 5481 5480 5481 5483 5486 5487 5490 5494 5497 5501 5502 5505 5504 5506 5508 5510 5509 5511 5511 5514 5517 5519 5519 5521 5521 5522 5522 5523 5521 5519 5516 5514 5510 5507 5507 5507 5507 5506 5507 5507 5505 5505 5505 5505 5509 5510 5511 5512 5515 5518 5524
5461 5460 5461 5462 5462 5463 5463 5466 5468 5471 5474 5479 5485 5494 5495 5495 5495 5497 5498 5498 5503 5504 5509 5511 5512 5511 5511 5512 5512 5514 5514 5513 5512 5509 5505 5502 5498 5499 5500 5502 5501 5501 5500 5500 5499 5502 5501 5502 5505 5507 5510 5512 5514 5519
5442 5441 5442 5443 5443 5444 5446 5448 5450 5453 5456 5461 5467 5474 5483 5486 5486 5485 5488 5491 5491 5496 5498 5503 5504 5504 5502 5502 5504 5505 5505 5505 5504 5502 5498 5494 5490 5492 5493 5494 5495 5496 5495 5493 5493 5495 5496 5499 5502 5503 5505 5507 5511 5514
5425 5425 5425 5425 5425 5427 5429 5432 5434 5436 5440 5444 5450 5456 5465 5472 5478 5476 5475 5480 5481 5487 5490 5492 5495 5496 5495 5496 5497 5496 5496 5495 5494 5493 5489 5484 5483 5484 5487 5487 5489 5491 5490 5488 5488 5489 5493 5495 5499 5499 5503 5505 5508 5513
5410 5409 5409 5409 5410 5412 5414 5416 5419 5422 5425 5429 5435 5442 5449 5458 5462 5465 5466 5469 5473 5476 5477 5479 5484 5487 5486 5488 5488 5488 5487 5487 5486 5484 5481 5478 5479 5478 5479 5482 5482 5484 5484 5484 5485 5486 5489 5491 5493 5495 5497 5502 5506 5510
5396 5396 5394 5395 5397 5398 5400 5401 5403 5406 5409 5414 5419 5426 5434 5439 5445 5453 5455 5460 5464 5469 5468 5465 5468 5476 5477 5478 5477 5478 5478 5479 5478 5476 5474 5473 5473 5472 5474 5477 5476 5478 5479 5480 5480 5481 5483 5486 5489 5490 5492 5497 5501 5506
5383 5382 5382 5383 5383 5383 5385 5386 5388 5391 5394 5398 5404 5410 5415 5422 5431 5438 5442 5448 5453 5456 5456 5455 5459 5466 5470 5469 5467 5468 5470 5470 5469 5466 5467 5467 5467 5467 5469 5469 5471 5471 5472 5473 5474 5475 5477 5479 5483 5485 5488 5493 5496 5500
5369 5369 5370 5370 5370 5371 5371 5372 5374 5377 5381 5384 5389 5394 5397 5407 5415 5424 5434 5437 5439 5441 5441 5446 5452 5455 5458 5459 5458 5460 5460 5459 5459 5458 5459 5458 5459 5460 5466 5463 5464 5465 5465 5467 5468 5470 5471 5473 5475 5476 5478 5483 5487 5493
5357 5358 5358 5358 5358 5359 5359 5360 5363 5366 5369 5372 5375 5378 5385 5395 5405 5413 5421 5421 5423 5426 5432 5439 5444 5449 5451 5450 5450 5453 5451 5451 5446 5450 5448 5448 5451 5457 5457 5456 5457 5458 5459 5460 5461 5462 5463 5466 5467 5468 5472 5475 5479 5484
5349 5349 5348 5348 5349 5349 5350 5351 5353 5356 5358 5362 5367 5371 5379 5386 5394 5400 5404 5408 5414 5421 5428 5433 5437 5438 5440 5443 5443 5442 5441 5441 5439 5442 5441 5441 5447 5450 5449 5448 5449 5450 5451 5451 5452 5452 5453 5454 5455 5457 5460 5463 5468 5473
5342 5341 5342 5342 5342 5343 5344 5344 5345 5348 5354 5360 5367 5370 5373 5377 5384 5391 5394 5403 5410 5416 5421 5425 5428 5430 5432 5433 5433 5433 5431 5431 5432 5433 5433 5435 5444 5443 5442 5442 5443 5443 5444 5444 5444 5443 5443 5443 5444 5445 5446 5450 5455 5458
5335 5336 5337 5340 5341 5341 5341 5342 5343 5346 5353 5359 5362 5365 5370 5376 5381 5387 5393 5399 5405 5410 5414 5416 5419 5421 5422 5423 5421 5422 5422 5424 5425 5426 5428 5434 5434 5434 5433 5435 5436 5436 5437 5437 5436 5435 5435 5435 5436 5435 5436 5439 5442 5446
5330 5332 5336 5338 5340 5342 5342 5344 5345 5348 5353 5357 5362 5366 5373 5378 5383 5389 5394 5398 5402 5404 5408 5410 5410 5412 5412 5413 5414 5416 5418 5419 5420 5422 5426 5427 5427 5427 5428 5429 5430 5430 5430 5430 5429 5429 5428 5428 5428 5427 5427 5430 5433 5437
5325 5328 5333 5336 5339 5341 5341 5345 5348 5350 5355 5360 5365 5370 5375 5379 5383 5387 5391 5394 5397 5399 5401 5402 5403 5404 5404 5407 5409 5410 5410 5412 5415 5419 5420 5419 5420 5420 5421 5422 5424 5425 5424 5424 5423 5422 5421 5420 5419 5420 5422 5424 5427 5430
5320 5325 5330 5333 5336 5338 5342 5348 5350 5354 5357 5361 5366 5370 5374 5377 5381 5384 5388 5390 5392 5393 5394 5396 5397 5398 5400 5401 5403 5404 5405 5408 5412 5413 5412 5412 5412 5413 5414 5416 5418 5419 5420 5419 5418 5416 5415 5414 5415 5416 5416 5418 5420 5423
5315 5321 5327 5332 5335 5338 5341 5346 5351 5353 5357 5362 5365 5368 5371 5375 5379 5382 5385 5386 5388 5390 5392 5392 5393 5393 5395 5396 5398 5399 5401 5402 5402 5403 5405 5405 5405 5407 5409 5411 5413 5414 5414 5413 5412 5411 5410 5410 5410 5409 5411 5412 5414 5416
5312 5319 5325 5329 5333 5336 5341 5344 5348 5352 5355 5358 5362 5365 5369 5373 5376 5379 5381 5382 5384 5385 5385 5387 5388 5389 5390 5392 5394 5394 5395 5395 5395 5396 5397 5399 5401 5403 5405 5407 5409 5410 5409 5408 5408 5407 5406 5405 5404 5407 5408 5410 5412 5415
5310 5317 5322 5327 5331 5335 5338 5341 5345 5348 5352 5355 5359 5362 5366 5370 5373 5375 5377 5378 5379 5378 5379 5381 5382 5386 5387 5388 5388 5388 5390 5391 5391 5392 5394 5396 5398 5400 5402 5404 5405 5406 5406 5405 5405 5405 5403 5403 5403 5406 5406 5408 5411 5414
5310 5316 5321 5326 5330 5333 5337 5340 5343 5347 5350 5354 5357 5360 5364 5367 5369 5371 5372 5372 5372 5373 5375 5378 5380 5381 5383 5384 5386 5387 5387 5388 5389 5390 5392 5392 5394 5396 5398 5400 5401 5402 5402 5402 5402 5402 5401 5402 5402 5404 5406 5408 5411 5413
5312 5316 5319 5323 5327 5331 5334 5337 5340 5345 5348 5351 5354 5357 5359 5361 5364 5365 5366 5366 5367 5370 5372 5374 5375 5377 5380 5382 5383 5385 5386 5387 5388 5388 5389 5390 5391 5393 5394 5396 5397 5398 5399 5398 5399 5400 5400 5400 5401 5403 5405 5407 5409 5411
5313 5316 5319 5323 5326 5329 5332 5334 5338 5340 5344 5347 5350 5353 5355 5357 5358 5360 5361 5361 5364 5367 5368 5370 5372 5375 5377 5379 5381 5382 5384 5385 5385 5386 5387 5387 5388 5388 5390 5391 5392 5393 5395 5396 5397 5397 5398 5399 5401 5402 5404 5405 5407 5409
5311 5314 5318 5321 5324 5325 5328 5330 5333 5335 5339 5342 5345 5347 5349 5350 5350 5351 5353 5357 5361 5362 5364 5367 5369 5372 5375 5377 5378 5380 5381 5382 5382 5383 5383 5383 5383 5383 5385 5386 5387 5388 5389 5391 5393 5395 5396 5397 5399 5400 5402 5405 5405 5408
5309 5312 5315 5317 5319 5321 5323 5325 5327 5331 5334 5336 5338 5340 5342 5343 5345 5347 5350 5354 5357 5357 5360 5363 5366 5369 5372 5374 5376 5377 5378 5379 5379 5378 5377 5377 5377 5378 5379 5380 5382 5385 5386 5387 5388 5391 5393 5395 5396 5398 5401 5404 5406 5407
5308 5309 5313 5314 5316 5318 5319 5321 5324 5327 5330 5331 5334 5337 5339 5341 5343 5346 5348 5351 5351 5353 5356 5360 5363 5365 5368 5370 5372 5373 5374 5375 5374 5373 5371 5371 5371 5372 5373 5375 5377 5379 5381 5383 5385 5386 5389 5392 5393 5395 5399 5403 5406 5408
5305 5308 5311 5313 5315 5318 5320 5323 5325 5326 5328 5331 5333 5336 5338 5339 5341 5343 5345 5345 5345 5348 5352 5356 5359 5361 5364 5366 5368 5369 5370 5370 5368 5366 5366 5366 5367 5368 5370 5371 5372 5374 5376 5379 5381 5382 5384 5387 5390 5392 5396 5400 5404 5407
5306 5309 5311 5314 5316 5318 5321 5323 5324 5326 5328 5330 5332 5334 5335 5336 5337 5338 5339 5339 5341 5343 5346 5350 5354 5356 5360 5363 5364 5365 5365 5364 5362 5362 5363 5363 5365 5366 5366 5366 5367 5369 5370 5372 5373 5375 5378 5381 5386 5389 5391 5396 5400 5405
5307 5310 5312 5315 5317 5319 5320 5322 5323 5325 5326 5328 5330 5330 5330 5332 5334 5334 5334 5335 5336 5338 5339 5344 5350 5353 5356 5359 5360 5361 5360 5359 5359 5360 5361 5362 5363 5363 5363 5363 5363 5363 5363 5365 5366 5368 5370 5375 5380 5385 5388 5392 5397 5402
5308 5310 5313 5315 5316 5318 5320 5321 5321 5322 5324 5324 5326 5327 5328 5329 5330 5330 5330 5330 5333 5334 5335 5341 5345 5350 5354 5356 5357 5356 5356 5357 5358 5358 5359 5361 5362 5362 5361 5361 5361 5360 5359 5359 5359 5361 5363 5368 5376 5382 5386 5391 5396 5400
5309 5311 5313 5314 5315 5316 5317 5318 5319 5320 5320 5320 5322 5324 5325 5327 5328 5327 5328 5328 5330 5332 5334 5339 5344 5348 5351 5353 5353 5354 5355 5356 5356 5358 5358 5359 5360 5359 5358 5358 5358 5356 5355 5354 5356 5357 5358 5362 5371 5379 5385 5390 5393 5398
5310 5311 5312 5313 5313 5314 5314 5314 5315 5315 5315 5316 5317 5319 5321 5323 5325 5326 5327 5328 5329 5331 5336 5340 5344 5347 5348 5349 5350 5352 5353 5354 5355 5356 5357 5357 5358 5358 5358 5356 5355 5354 5354 5353 5353 5354 5355 5359 5368 5377 5383 5387 5391 5396
5310 5311 5311 5312 5312 5312 5312 5312 5312 5313 5313 5313 5315 5315 5317 5318 5321 5323 5325 5327 5330 5334 5337 5340 5343 5345 5346 5348 5350 5351 5352 5354 5355 5356 5357 5358 5358 5358 5357 5356 5355 5354 5353 5353 5353 5354 5355 5359 5368 5376 5382 5388 5393 5397
5311 5311 5312 5312 5312 5312 5312 5312 5313 5313 5313 5313 5314 5315 5316 5318 5321 5324 5326 5329 5332 5335 5337 5339 5342 5344 5346 5348 5350 5352 5354 5355 5357 5357 5359 5360 5360 5359 5359 5358 5357 5354 5353 5353 5353 5354 5357 5362 5368 5376 5382 5387 5391 5396
Wind_Speed
70 67 64 62 62 61 56 53 52 46 47 39 41 34 29 33 31 35 43 39 32 30 34 34 36 24 21 23 25 26 28 27 31 31 34 34 22 17 14 11 12 13 16 18 16 13 9 14 11 12 12 21 25 37
65 63 62 60 59 58 56 52 51 50 50 62 38 47 41 44 44 37 35 30 28 26 28 25 27 24 22 27 24 23 26 30 32 30 35 41 29 22 19 14 16 17 21 25 20 17 15 13 18 18 19 17 22 30
60 60 58 56 56 55 52 51 50 49 52 54 55 37 42 41 45 44 33 35 31 28 24 27 27 25 30 27 28 26 27 30 28 31 37 43 30 21 24 19 18 15 20 20 27 20 19 24 24 17 22 19 20 25
58 57 56 54 53 51 47 46 47 47 50 50 49 49 49 42 42 43 46 38 31 29 29 26 25 27 32 33 29 26 29 32 31 29 36 41 25 23 23 21 16 16 12 17 18 28 22 18 23 27 23 21 22 22
53 52 52 51 49 46 44 43 43 44 45 48 47 49 65 57 48 46 43 44 48 41 35 32 28 27 30 31 29 25 27 32 28 31 40 33 23 24 27 24 20 19 18 17 14 16 23 21 22 22 24 21 21 20
45 46 46 46 45 43 42 42 43 44 45 45 46 45 45 50 55 50 52 53 44 42 38 31 32 33 35 31 29 26 29 27 27 32 40 30 22 25 25 24 25 21 18 17 13 21 24 22 22 25 24 24 22 23
42 42 44 44 43 41 40 41 41 43 45 47 47 50 57 53 53 40 48 42 44 40 37 33 31 28 29 36 28 28 29 26 29 30 36 23 21 24 20 20 25 24 22 18 17 14 19 26 21 26 27 25 26 23
39 39 40 38 37 37 37 37 38 39 41 44 48 50 56 67 59 52 42 44 41 38 41 41 39 28 31 36 34 32 28 29 29 28 34 24 25 24 19 21 23 24 26 24 22 19 17 21 25 24 27 24 24 23
37 36 35 34 34 33 32 34 34 35 36 39 43 47 55 59 68 66 54 57 54 53 51 47 42 38 42 47 42 31 29 30 32 31 34 28 31 26 12 18 18 21 25 25 26 25 25 21 25 31 32 30 31 28
30 28 27 29 28 28 28 29 29 29 29 29 30 43 49 52 52 54 57 55 59 66 55 51 49 44 34 34 30 28 31 33 35 25 26 30 29 26 21 24 22 22 23 24 28 31 30 27 29 33 35 35 33 33
22 22 23 22 22 23 22 21 23 24 25 26 30 30 33 37 41 51 54 57 56 52 47 39 35 35 38 33 29 33 36 35 33 30 29 27 18 17 21 26 27 24 26 29 32 33 33 32 33 39 40 39 37 37
19 19 17 15 12 10 8 11 17 18 25 23 23 26 28 36 39 38 40 39 36 33 32 32 39 34 29 32 37 42 40 34 34 31 29 30 21 22 27 26 22 23 28 23 24 25 24 24 19 22 34 45 44 44
17 13 11 10 6 7 7 5 13 20 22 28 29 28 25 27 31 33 29 30 33 37 39 29 21 28 32 36 33 20 23 29 23 26 29 22 17 18 24 25 24 26 25 21 17 18 20 19 20 23 23 29 33 36
14 16 17 8 9 5 3 7 9 25 24 31 27 30 29 29 26 21 19 34 26 17 11 13 16 24 25 21 21 23 23 25 25 21 15 16 18 21 22 22 25 22 19 14 10 14 18 19 23 22 18 21 24 27
16 26 19 15 16 11 13 13 25 27 30 27 22 23 16 19 22 24 14 10 7 9 11 14 17 20 21 21 24 24 25 26 25 22 22 25 25 27 23 22 20 18 12 13 12 15 19 16 17 20 22 21 23 22
25 33 26 22 16 15 20 25 30 32 27 24 19 23 23 17 15 14 14 10 7 9 13 18 25 22 25 25 31 27 26 25 22 23 27 28 27 21 16 16 17 13 11 12 13 9 12 17 17 24 25 25 25 21
32 38 28 24 21 18 19 22 30 28 27 29 28 22 16 15 16 13 11 8 11 16 19 20 19 19 23 27 24 25 26 23 27 31 34 21 20 19 16 16 14 12 12 12 10 9 8 15 15 11 10 11 15 17
35 40 30 27 24 23 20 19 20 21 20 19 21 20 19 20 18 16 11 10 15 18 18 22 23 21 19 17 9 9 7 10 9 15 15 16 17 16 15 14 12 10 12 10 9 10 6 2 15 11 9 7 9 15
34 38 29 28 24 21 19 21 18 16 15 13 17 21 23 20 15 13 11 16 18 16 19 19 20 18 18 19 12 8 9 7 9 13 12 12 11 12 12 11 10 10 12 10 8 9 8 2 20 13 11 15 10 11
30 35 29 29 26 19 17 19 18 18 16 17 22 24 20 18 16 16 16 15 13 20 19 17 18 16 17 13 6 4 7 7 10 10 9 7 7 9 11 11 13 11 13 13 9 7 9 6 16 15 12 13 11 5
15 26 33 33 30 28 22 22 26 24 19 20 19 19 19 21 21 18 14 15 17 17 17 16 17 13 14 13 12 7 7 6 5 4 6 8 9 10 14 17 17 16 14 15 11 7 8 9 3 8 11 12 16 12
11 9 22 21 24 33 31 24 23 22 24 27 28 26 24 26 25 24 21 19 17 15 18 19 18 12 11 13 12 12 10 7 8 10 12 13 15 13 11 14 18 20 18 17 14 11 9 9 8 7 12 13 15 10
25 15 19 20 15 25 36 35 30 24 23 24 26 27 27 29 29 25 22 20 18 19 21 21 21 17 13 14 14 15 13 11 12 15 17 20 22 20 17 16 20 19 19 19 17 16 12 10 11 8 13 15 16 11
26 21 21 26 25 23 25 29 30 25 29 27 27 25 18 16 18 21 18 18 18 21 23 24 21 19 17 17 16 16 16 16 14 15 19 22 17 16 17 18 20 18 19 21 18 16 15 12 12 13 12 17 17 13
32 25 17 14 13 13 13 14 15 15 17 17 18 14 12 12 13 15 16 18 21 22 25 25 22 21 20 20 19 19 18 15 16 18 14 12 11 14 16 18 19 17 22 21 21 19 17 16 13 17 17 18 17 17
15 13 13 16 14 14 16 10 9 9 15 20 17 14 12 12 15 16 18 19 23 24 25 29 24 23 20 17 17 17 14 14 19 16 12 12 11 12 14 16 15 17 18 19 21 24 24 22 19 17 19 22 20 17
17 18 15 14 13 10 11 11 11 10 12 14 14 13 14 15 14 16 19 21 21 21 23 31 30 24 18 16 16 12 13 17 11 10 10 9 8 7 8 13 15 18 21 21 23 23 25 26 24 19 19 24 22 20
20 13 14 14 12 11 11 13 15 16 15 16 16 16 14 12 12 11 10 13 14 12 16 30 31 25 21 19 15 13 16 9 9 9 7 5 6 7 10 16 16 17 12 13 14 23 27 30 27 23 22 23 26 21
19 17 16 15 13 10 9 10 12 12 13 14 13 11 9 8 7 9 13 6 8 12 16 32 33 28 22 14 15 13 7 8 8 6 5 7 8 7 8 11 12 16 20 17 13 9 22 33 30 25 25 27 25 25
16 13 9 7 5 5 5 7 7 8 12 13 14 12 12 10 8 11 11 3 10 11 24 29 24 19 15 13 10 8 10 10 6 7 9 8 10 10 7 7 5 9 13 17 16 11 15 30 33 28 29 29 24 26
6 4 4 4 5 8 10 12 14 13 13 14 15 16 17 16 16 10 12 11 14 19 23 21 15 13 12 8 6 8 9 8 7 8 7 8 5 7 5 5 10 11 8 6 4 3 13 29 34 30 27 25 22 25
5 4 3 3 3 2 4 5 5 4 4 8 8 11 10 12 14 13 13 18 22 21 19 17 14 11 9 7 7 7 10 13 10 8 9 6 4 6 7 9 12 14 13 9 6 6 16 28 34 32 29 27 26 24
6 5 4 4 4 5 4 3 4 4 5 3 7 11 12 14 16 19 20 19 18 16 14 13 12 11 13 13 11 13 16 12 8 7 5 1 2 3 9 8 9 12 16 14 11 11 19 28 32 32 30 27 25 22
Wind_Direction
275 276 276 275 274 272 274 274 267 257 236 237 247 253 266 274 272 250 253 268 279 279 287 297 303 309 302 295 282 295 293 309 316 324 328 330 303 278 258 255 260 266 275 265 264 263 212 199 247 222 230 242 229 230
275 275 275 275 276 275 273 269 263 258 247 239 242 258 260 270 270 266 277 276 275 279 290 288 294 296 259 268 273 289 289 296 312 313 319 324 310 257 251 237 273 271 272 251 254 244 234 221 222 229 219 227 229 226
276 276 276 277 275 273 271 266 262 257 251 245 243 239 243 244 255 259 268 268 269 282 267 278 285 259 260 263 273 287 275 283 304 306 316 319 298 263 254 261 261 271 268 267 254 248 247 229 217 236 247 230 216 217
276 277 277 275 273 271 268 264 261 256 251 248 241 228 232 249 250 251 259 258 271 263 265 275 263 263 256 262 272 271 282 283 300 311 314 318 277 251 247 255 253 276 280 274 266 246 250 244 234 245 230 222 205 201
275 274 273 272 271 270 267 263 257 253 250 247 240 232 228 234 239 241 245 258 270 262 267 260 261 260 266 265 270 273 280 287 303 309 319 316 250 259 247 250 259 277 270 280 253 217 242 240 228 231 235 225 218 202
272 272 271 271 271 270 267 263 257 252 248 244 240 224 224 225 228 242 246 243 249 252 255 254 258 253 267 264 270 275 276 291 296 309 324 309 249 266 261 251 265 269 275 265 273 238 238 243 243 228 236 235 225 215
272 271 271 271 270 268 264 259 255 249 244 241 236 232 220 216 216 224 229 237 239 244 242 252 242 262 260 262 274 275 279 286 290 307 324 273 255 259 259 255 258 259 266 265 269 262 244 245 241 236 237 235 232 227
272 269 268 269 267 265 263 259 254 249 245 240 236 233 229 222 223 228 235 233 229 234 239 250 263 270 260 264 269 269 272 276 289 309 314 265 252 262 247 242 254 260 266 264 261 265 252 235 233 239 239 232 230 237
269 269 270 268 265 263 259 256 253 249 245 241 236 233 231 228 231 234 234 236 244 249 254 259 266 282 274 264 264 269 275 282 291 299 298 259 248 250 248 255 251 252 255 256 259 260 258 252 233 229 227 230 231 231
271 269 265 263 261 258 255 253 252 245 237 236 230 232 232 229 226 228 229 238 243 248 248 255 270 271 249 254 262 274 285 291 293 282 260 253 256 253 245 247 260 268 273 270 258 253 256 256 249 239 238 240 242 247
275 267 262 260 257 254 255 251 243 235 220 216 210 227 231 221 212 214 227 235 240 247 249 250 244 243 246 261 277 283 288 284 272 260 248 247 251 243 237 246 249 260 272 269 264 263 258 256 253 246 244 244 240 237
263 261 259 251 242 236 232 248 229 216 202 201 227 232 221 200 200 212 222 228 227 227 234 240 239 244 262 275 280 284 274 260 250 253 251 249 254 261 247 252 257 268 267 267 266 264 264 250 256 255 242 239 242 244
251 247 204 166 203 227 208 194 198 183 184 204 213 198 179 188 199 211 224 232 238 243 236 231 257 273 277 281 284 261 237 228 237 249 254 267 254 247 246 248 256 267 265 271 263 263 254 270 260 278 246 233 238 240
230 197 165 153 157 123 151 223 190 174 190 179 169 174 179 199 204 219 226 220 218 226 241 265 292 289 281 263 246 235 239 232 236 243 249 250 256 265 267 251 257 263 262 279 275 272 272 268 269 261 237 227 226 229
204 186 154 139 145 184 179 185 154 163 172 170 176 189 199 206 212 217 211 199 220 241 277 312 303 279 255 237 219 222 230 234 241 249 260 262 265 271 274 262 255 246 267 279 288 283 275 273 257 238 226 221 229 232
191 183 159 155 166 181 203 174 169 171 168 176 183 208 207 206 211 208 198 217 255 284 303 300 299 269 234 231 225 229 235 245 254 254 256 270 273 254 234 234 236 251 263 271 279 285 278 279 261 249 228 232 231 236
189 184 170 169 168 177 184 191 186 184 197 202 202 202 204 216 202 200 223 253 279 285 285 271 238 237 238 242 245 243 252 255 255 263 263 254 228 215 220 229 237 251 259 281 285 327 292 267 256 194 234 233 217 224
192 184 182 179 173 182 189 186 190 185 185 204 206 203 215 215 204 223 243 289 291 286 259 238 235 247 237 237 229 230 238 254 263 230 220 221 227 220 217 227 238 247 260 281 307 306 282 107 165 190 227 210 201 210
192 191 191 193 191 181 183 195 201 210 207 211 213 217 208 210 226 238 276 284 280 237 228 231 233 228 243 254 225 238 234 265 215 212 215 216 201 203 215 224 237 248 257 272 291 292 305 218 168 189 182 168 194 223
193 193 192 199 200 197 205 205 204 204 201 209 209 206 219 229 244 263 273 285 240 223 232 223 223 238 222 227 195 225 206 201 205 217 232 233 224 225 227 234 248 253 256 263 274 275 292 299 189 194 206 196 189 203
173 199 205 206 202 201 207 216 221 223 214 207 213 227 241 251 259 268 281 268 237 227 224 220 224 211 221 226 233 238 227 219 225 249 269 274 256 240 242 240 244 252 255 255 262 251 260 285 183 212 207 222 221 219
204 194 203 206 223 216 214 214 219 223 230 234 239 244 249 253 254 265 269 246 221 231 224 219 218 196 196 212 224 220 228 237 258 269 276 276 280 265 276 247 238 243 244 240 245 242 242 240 241 241 221 229 227 198
210 218 215 214 225 224 225 229 234 235 236 239 246 247 243 258 264 254 240 227 226 239 222 210 207 204 211 214 219 224 226 232 253 271 282 281 277 273 265 238 229 233 241 239 236 228 227 231 232 240 220 217 229 240
221 226 219 218 225 235 233 237 236 244 248 256 259 258 236 230 230 221 221 218 220 229 220 209 203 203 209 217 222 225 233 238 256 274 271 274 268 256 248 237 220 220 231 228 231 224 220 223 224 232 226 210 217 229
210 211 209 206 205 209 214 196 186 201 212 207 185 190 195 206 218 226 222 223 230 232 221 208 205 207 220 230 227 241 249 253 270 289 272 259 246 239 236 232 232 233 223 223 225 228 225 223 221 225 231 220 216 211
199 195 192 176 166 175 181 180 172 185 193 194 195 194 216 227 229 225 215 226 235 237 225 207 201 209 219 227 236 233 251 275 294 280 252 239 236 235 234 241 236 228 228 233 233 227 223 224 219 220 218 214 210 207
169 158 159 160 160 166 185 191 184 187 183 191 199 214 245 246 235 229 231 237 242 243 231 209 202 214 218 222 228 252 272 294 281 247 227 230 235 231 255 260 245 236 237 238 238 234 226 220 215 213 212 213 209 210
170 164 168 176 187 200 206 210 215 221 225 220 237 241 233 230 220 227 245 238 233 241 218 202 201 209 221 234 234 264 287 267 241 224 222 245 231 231 231 254 259 259 260 213 229 229 225 216 211 204 208 209 206 211
174 176 178 180 189 198 209 217 215 217 226 222 215 210 198 195 220 239 212 239 232 219 201 192 209 216 221 236 249 271 231 215 224 233 231 252 244 252 247 245 250 245 261 273 274 254 216 210 205 198 200 205 214 205
176 180 182 183 182 204 238 206 208 249 252 244 223 216 215 235 227 235 239 195 216 211 181 186 200 211 220 246 250 223 219 210 201 243 239 246 257 256 245 230 168 172 210 239 258 244 216 204 198 194 198 205 210 194
171 178 202 223 245 248 247 245 250 250 242 234 226 230 235 236 220 219 219 231 200 168 175 187 199 210 247 211 177 193 193 177 197 217 199 190 154 103 109 95 102 121 156 214 195 181 204 188 189 190 196 208 213 212
182 187 194 190 188 204 224 203 184 165 161 183 210 218 223 201 203 210 209 181 155 160 176 189 206 223 189 193 190 201 194 179 155 138 112 89 66 83 62 32 48 86 111 131 126 129 173 179 182 188 198 206 199 198
122 132 137 134 145 155 133 133 150 176 183 150 169 168 162 162 165 163 158 160 166 175 192 196 186 182 191 195 191 176 159 146 149 144 129 128 74 75 78 57 35 35 63 92 111 134 165 177 180 183 193 199 201 198